Regional Weather Roundup
Issued by NWS

Home | Current Version | Previous Version | Text Only | Print | Product List | Glossary Off
Versions: 1 2 3 4 5 6 7 8 9 10 11 12 13 14 15 16 17 18 19 20 21 22 23 24 25 26 27 28 29 30 31 32 33 34 35 36 37 38 39 40 41 42 43 44 45 46 47 48 49 50

000
ASUS43 KOAX 021910
RWRNE

WEATHER ROUNDUP FOR NEBRASKA
NATIONAL WEATHER SERVICE OMAHA NE
200 PM CDT TUE JUN 02 2015

NOTES: SATELLITE DATA IS BEING USED TO AUGMENT CLOUD COVER ABOVE
       12000 FEET.
       "FAIR" INDICATES FEW OR NO CLOUDS BELOW 12,000 FEET WITH NO
       SIGNIFICANT WEATHER AND/OR OBSTRUCTIONS TO VISIBILITY.

  * THESE STATIONS DO NOT REPORT WEATHER SUCH AS RAIN...SNOW OR FOG.

NEZ001>004-019>022-054>056-022000-
NEBRASKA PANHANDLE

CITY           SKY/WX    TMP DP  RH WIND       PRES   REMARKS
SCOTTSBLUFF    SUNNY     81  60  48 VRB5      29.85F
ALLIANCE       MOSUNNY   79  62  56 S9        29.85F
CHADRON        MOSUNNY   80  62  54 NW3       29.83F
KIMBALL          N/A    N/A N/A N/A MISG        N/A
SIDNEY         SUNNY     78  62  57 VRB3      29.90F
$$

NEZ057>060-069>072-079>082-022000-
SOUTHWEST NEBRASKA

CITY           SKY/WX    TMP DP  RH WIND       PRES   REMARKS
NORTH PLATTE   SUNNY     82  66  58 S9        29.84F
IMPERIAL       SUNNY     80  65  59 S9        29.86F
LEXINGTON      CLOUDY    75  67  76 SE12G17   29.88F
MCCOOK         SUNNY     82  65  56 S15       29.85F
OGALLALA       SUNNY     81  62  51 S9        29.86F
$$

NEZ005>010-023>029-035>040-094-022000-
NORTH CENTRAL NEBRASKA

CITY           SKY/WX    TMP DP  RH WIND       PRES   REMARKS
AINSWORTH      SUNNY     83  59  43 SW16G23   29.84S
BROKEN BOW     PTSUNNY   74  64  71 S14G23    29.88F
O`NEILL        SUNNY     77  64  64 S15G22    29.87F
ORD            CLOUDY    71  61  70 S14G23    29.88F
THEDFORD       MOSUNNY   83  60  45 S12G18    29.86F
$$

NEZ041-046>049-061>064-073>077-083>087-022000-
SOUTH CENTRAL NEBRASKA

CITY           SKY/WX    TMP DP  RH WIND       PRES   REMARKS
GRAND ISLAND   CLOUDY    70  61  73 S13       29.92F
AURORA         CLOUDY    72  63  72 S14       29.92F
HASTINGS       CLOUDY    71  63  75 S7G21     29.91F
HEBRON         PTSUNNY   76  62  60 S14       29.91F
HOLDREGE       CLOUDY    74  64  70 S14G20    29.88F
KEARNEY *      CLOUDY    68  63  83 SE13      29.91F
YORK           CLOUDY    68  63  83 SE12      29.93F
$$

NEZ011>018-030>034-042>045-022000-
NORTHEAST NEBRASKA

CITY           SKY/WX    TMP DP  RH WIND       PRES   REMARKS
NORFOLK        CLOUDY    73  61  65 S14G22    29.91F
ALBION         CLOUDY    69  59  71 S14       29.92F
BLAIR          CLOUDY    72  56  58 S15       29.96F
COLUMBUS *     CLOUDY    72  59  64 S14       29.94F
FREMONT        CLOUDY    73  59  61 SE14G20   29.96F
TEKAMAH        CLOUDY    74  58  57 SE20      29.94F
WAYNE          CLOUDY    73  61  65 S15G23    29.93F
$$

NEZ050>053-065>068-078-088>093-022000-
SOUTHEAST NEBRASKA

CITY           SKY/WX    TMP DP  RH WIND       PRES   REMARKS
LINCOLN        CLOUDY    71  60  68 SE12      29.95F
OMAHA EPPLEY   CLOUDY    73  58  59 S15       29.96F
BEATRICE       CLOUDY    73  62  69 SE12G21   29.93F
FALLS CITY     PTSUNNY   72  60  66 SE12      29.98F
NEBRASKA CITY  PTSUNNY   69  55  60 SE15      29.98F
PLATTSMOUTH    CLOUDY    70  57  63 SE15      29.98F
$$

NEZ044-045-051>053-067-022000-
OMAHA AREA

CITY           SKY/WX    TMP DP  RH WIND       PRES   REMARKS
OMAHA EPPLEY   CLOUDY    73  58  59 S15       29.96F
BLAIR          CLOUDY    72  56  58 S15       29.96F
FREMONT        CLOUDY    73  59  61 SE14G20   29.96F
MILLARD        CLOUDY    72  60  65 SE9       29.96F
OFFUTT AFB     PTSUNNY   73  60  63 SE14G21   29.96F
PLATTSMOUTH    CLOUDY    70  57  63 SE15      29.98F
WAHOO          RAIN      66  62  87 SE13      29.95F
$$


USA.gov is the U.S. government's official web portal to all federal, state and local government web resources and services.